Location: Bergnerzell
(49.1816°N, 10.2565°E)
Time: 20:59:10
(UTC+00:00)

SL-8 R/B - Pass Details

Date: 23 May 2024
Orbit: 651 x 662 km, 48.4° (Epoch: 24 June)

Event Time Altitude Azimuth Distance (km) Brightness Sun altitude
Rises 00:58:43 0° 283° (WNW) 2,977 6.9 -16.5°
Reaches altitude 10° 01:01:10 10° 276° (W) 2,065 6.0 -16.3°
Maximum altitude 01:05:36 39° 208° (SSW) 981 4.1 -16.0°
Drops below altitude 10° 01:10:01 10° 140° (SE) 2,064 6.0 -15.7°
Sets 01:12:28 0° 133° (SE) 2,975 6.9 -15.5°
